Regional Weather Roundup
Issued by NWS Little Rock, AR

Home | Current Version | Previous Version | Graphics & Text | Print | Product List | Glossary On
Versions: 1 2 3 4 5 6 7 8 9 10 11 12 13 14 15 16 17 18 19 20 21 22 23 24 25 26 27 28 29 30 31 32 33 34 35 36 37 38 39 40 41 42 43 44 45 46 47 48 49 50
000
ASUS44 KLZK 212305
RWRLZK

WEATHER ROUNDUP FOR ARKANSAS
NATIONAL WEATHER SERVICE LITTLE ROCK AR
500 PM CST TUE FEB 21 2017

NOTE: "FAIR" INDICATES FEW OR NO CLOUDS BELOW 12,000 FEET WITH NO
SIGNIFICANT WEATHER AND/OR OBSTRUCTIONS TO VISIBILITY.

ARZ001-003-010-029-220000-
NORTHWEST ARKANSAS

CITY           SKY/WX    TMP DP  RH WIND       PRES   REMARKS
FAYETTEVILLE   CLOUDY    63  54  72 NE7       29.88S
FORT SMITH     CLOUDY    70  52  52 N12       29.85R
HARRISON       CLOUDY    58  57  97 N5        29.90R
BENTONVILLE    CLOUDY    66  52  59 NE9       29.89S
ROGERS         CLOUDY    65  55  70 NE9       29.89S
SILOAM SPGS    CLOUDY    66  50  55 N14       29.88S
HIGHFILL       CLOUDY    67  53  61 N8        29.88R
SPRINGDALE     CLOUDY    64  55  72 NE8       29.90R
$$

ARZ004-005-016-220000-
NORTH CENTRAL ARKANSAS

CITY           SKY/WX    TMP DP  RH WIND       PRES   REMARKS
BATESVILLE     CLOUDY    59  57  94 CALM      29.87R
FLIPPIN        CLOUDY    59  54  82 N6        29.87R
MTN HOME       LGT RAIN  58  57  97 CALM      29.88R FOG
$$

ARZ040-041-220000-
WEST CENTRAL ARKANSAS

CITY           SKY/WX    TMP DP  RH WIND       PRES   REMARKS
MENA           CLOUDY    64  59  82 NW6       29.87S
MOUNT IDA      LGT RAIN  60  59  96 CALM      29.84R FOG
$$

ARZ009-017-025-026-028-220000-
NORTHEAST ARKANSAS

CITY           SKY/WX    TMP DP  RH WIND       PRES   REMARKS
CORNING        CLOUDY    63  63 100 E7        29.88R
JONESBORO      CLOUDY    65  58  78 S7        29.85S
NEWPORT        MOCLDY    64  58  80 S7        29.85S
WALNUT RIDGE   MOCLDY    63  57  82 NE3       29.86R
BLYTHEVILLE    CLOUDY    65  59  81 SE7       29.88R
NW BLYTHEVILLE MOCLDY    63  59  88 SE7       29.87R
$$

ARZ022-023-033-042-044-220000-
CENTRAL ARKANSAS

CITY           SKY/WX    TMP DP  RH WIND       PRES   REMARKS
LITTLE ROCK    LGT RAIN  60  60 100 NW5       29.83S FOG
JACKSONVILLE   LGT RAIN  61  61  99 CALM      29.83R
SEARCY         CLOUDY    62  61  96 CALM      29.86R
HOT SPRINGS    CLOUDY    61  59  93 NW3       29.85R
RUSSELLVILLE   CLOUDY    61  57  87 CALM      29.86R
CLINTON        DRZL/FOG  61  57  88 CALM      29.86R VSB 1
$$

ARZ036-220000-
EAST ARKANSAS

CITY           SKY/WX    TMP DP  RH WIND       PRES   REMARKS
WEST MEMPHIS   CLOUDY    66  58  75 SE5       29.84S
$$

ARZ050-053-066-070-073-220000-
SOUTHWEST ARKANSAS

CITY           SKY/WX    TMP DP  RH WIND       PRES   REMARKS
ARKADELPHIA    LGT RAIN  61  59  93 NW7       29.85R
CAMDEN         LGT RAIN  61  57  88 W3        29.84S
EL DORADO      LGT RAIN  59  59 100 SW3       29.85S FOG
DE QUEEN       MOSUNNY   69  55  60 N6        29.84R
$$

ARZ056-057-069-220000-
SOUTHEAST ARKANSAS

CITY           SKY/WX    TMP DP  RH WIND       PRES   REMARKS
PINE BLUFF     LGT RAIN  62  59  90 SW7       29.83R
STUTTGART      CLOUDY    64  52  63 S6        29.84R
MONTICELLO     CLOUDY    62  59  90 W6        29.84R

$$





USA.gov is the U.S. government's official web portal to all federal, state and local government web resources and services.